This demonstration page uses our WeatherBlox Daily Observations layout. Learn more.

Left ArrowRight Arrow

47.50024, -111.30081

Hourly Observations for January 23, 2020

Temp ( °F °C ) Dew Point ( °F °C ) Humidity (%) Winds ( mph kmh ) Pressure ( in mb ) Visibility ( mi km ) Precip ( " mm )
12:53 am 00:53 Cloudy 30 -1.1 20 -6.7 66 66 SSW 9 15 30.12 1020 10 16 0.00 0.00
1:53 am 01:53 Cloudy 32 0 20 -6.7 61 61 SW 12 19 30.12 1020 10 16 0.00 0.00
2:53 am 02:53 Cloudy 32 0 20 -6.7 61 61 SW 10 17 30.12 1020 10 16 0.00 0.00
3:53 am 03:53 Partly Cloudy 30 -1.1 19 -7.2 64 64 SW 12 19 30.13 1020 10 16 0.00 0.00
4:53 am 04:53 Clear 26 -3.3 18 -7.8 71 71 SW 12 19 30.16 1021 10 16 0.00 0.00
5:53 am 05:53 Clear 32 0 20 -6.7 61 61 SW 14 22 30.15 1021 10 16 0.00 0.00
6:53 am 06:53 Clear 33 0.6 21 -6.1 61 61 SW 16 26 30.14 1021 10 16 0.00 0.00
7:53 am 07:53 Clear 34 1.1 22 -5.6 61 61 SW 17 28 30.15 1021 10 16 0.00 0.00
8:53 am 08:53 Cloudy 38 3.3 24 -4.4 57 57 SW 14 22 30.14 1021 10 16 0.00 0.00
9:53 am 09:53 Mostly Cloudy 41 5 25 -3.9 53 53 SW 20 31 30.11 1020 10 16 0.00 0.00
10:53 am 10:53 Sunny 45 7.2 26 -3.3 48 48 SW 22 35 30.10 1019 10 16 0.00 0.00
2:53 pm 14:53 Sunny 48 8.9 28 -2.2 46 46 SW 24 39 30.01 1016 10 16 0.00 0.00
3:53 pm 15:53 Sunny 46 7.8 28 -2.2 50 50 SW 25 41 30.01 1016 10 16 0.00 0.00
4:53 pm 16:53 Sunny 45 7.2 28 -2.2 52 52 SW 22 35 30.03 1017 10 16 0.00 0.00
5:53 pm 17:53 Clear 44 6.7 29 -1.7 55 55 SW 26 43 30.00 1016 10 16 0.00 0.00
6:53 pm 18:53 Clear 44 6.7 29 -1.7 55 55 SW 22 35 30.00 1016 10 16 0.00 0.00
7:53 pm 19:53 Clear 43 6.1 29 -1.7 58 58 SW 22 35 29.99 1016 10 16 0.00 0.00
8:53 pm 20:53 Clear 41 5 28 -2.2 60 60 SSW 17 28 29.98 1015 10 16 0.00 0.00
9:53 pm 21:53 Clear 42 5.6 29 -1.7 60 60 SSW 21 33 29.96 1015 10 16 0.00 0.00
10:53 pm 22:53 Clear 44 6.7 30 -1.1 58 58 SW 23 37 29.92 1013 10 16 0.00 0.00
11:53 pm 23:53 Clear 44 6.7 30 -1.1 58 58 SW 20 31 29.92 1013 10 16 0.00 0.00

Powered by AerisWeather